Theta_e
311 310 308 307 307 307 309 310 309 306 305 305 306 306 306 305 305 305 305 308 308 309 314 316 315 315 314 313 313 314 310 309 311 311 312 314 314 317 318 317 319 326 334 339 352
309 308 307 307 307 306 306 306 307 309 308 307 306 305 305 306 306 306 311 315 316 311 310 314 316 316 315 314 314 311 307 309 309 311 311 313 314 315 315 315 318 332 346 352 355
303 303 304 305 305 305 304 304 305 304 304 305 306 305 306 306 305 309 316 316 316 316 312 310 314 315 314 312 313 311 311 310 312 314 315 312 313 316 314 313 317 318 344 354 355
303 303 302 302 303 303 303 303 303 303 303 303 303 304 308 307 305 316 316 316 317 315 313 311 313 316 309 310 312 310 310 313 313 315 314 313 315 314 315 316 317 318 318 325 341
304 304 304 303 303 303 302 302 302 302 302 302 302 303 308 308 309 308 312 314 316 315 314 311 315 317 310 309 311 310 311 313 314 314 315 315 312 313 314 317 317 317 318 318 319
304 304 304 304 304 304 304 304 303 302 302 301 301 303 308 307 309 307 313 309 309 313 312 310 317 317 314 312 310 312 313 312 313 314 314 312 313 313 315 316 317 317 317 318 318
300 300 301 302 302 303 304 304 303 302 302 301 300 305 308 307 308 308 308 315 316 315 315 312 318 316 315 313 314 314 312 312 311 313 311 314 311 311 314 316 316 317 317 318 318
298 299 299 299 299 300 301 302 304 304 303 302 301 306 308 305 308 307 309 307 312 317 318 317 315 316 313 313 313 312 312 314 312 311 311 312 313 312 315 315 315 317 317 317 318
298 298 298 298 299 299 299 300 301 302 304 304 305 308 309 308 310 311 314 313 308 312 313 319 316 315 315 314 312 311 311 310 313 310 312 310 313 313 315 315 314 316 317 317 317
297 297 297 298 298 299 299 299 300 303 310 309 311 310 309 308 310 314 316 318 313 311 316 319 316 313 313 313 316 313 309 312 311 311 310 311 309 311 315 313 313 315 317 317 318
297 297 298 298 298 298 299 299 303 310 309 311 312 311 311 311 312 313 313 317 315 318 321 318 317 316 315 314 313 313 312 311 310 312 312 311 311 311 312 313 312 315 316 316 318
296 297 299 299 298 297 299 303 306 306 305 307 307 309 308 309 312 312 315 317 315 320 320 317 321 318 315 313 313 313 312 310 311 313 311 312 312 313 313 313 314 315 316 317 317
296 297 298 300 299 301 301 299 301 303 305 307 307 310 311 312 313 313 313 313 316 318 320 320 318 318 317 316 315 314 314 311 311 313 313 314 313 313 314 314 316 316 317 317 317
296 296 297 299 300 299 299 300 300 304 307 309 310 310 312 313 314 314 314 313 315 317 319 320 319 318 317 316 315 315 312 312 312 312 311 313 312 313 313 315 315 317 318 319 318
296 296 297 297 300 302 300 301 305 307 307 307 309 311 313 313 313 315 316 314 315 318 320 321 320 320 317 316 315 314 313 312 312 312 312 313 313 313 314 317 317 316 329 332 330
296 296 296 299 302 302 302 303 306 309 309 307 309 310 310 310 310 316 317 315 315 317 320 319 319 320 319 317 315 314 313 313 313 310 312 311 313 314 314 315 316 326 337 337 338
296 296 298 307 306 304 303 305 308 310 307 309 308 310 310 309 310 318 317 316 318 322 322 321 320 319 319 318 315 315 314 313 314 312 314 311 313 313 315 316 319 333 334 335 336
296 297 306 307 309 305 304 305 307 305 308 307 309 310 310 309 316 316 318 317 315 317 320 323 324 321 320 319 318 314 313 313 316 315 314 314 315 314 314 319 322 334 333 333 335
296 297 308 306 307 306 306 305 304 306 307 311 311 311 310 311 312 314 316 318 316 316 321 325 322 320 321 319 318 317 317 313 315 321 315 315 318 322 323 325 330 330 331 329 329
296 297 304 305 306 306 305 310 310 310 310 311 312 311 312 311 313 313 315 316 317 318 318 319 325 320 321 321 320 319 316 317 315 321 320 322 324 320 326 325 327 328 326 326 326
297 299 304 305 306 305 308 309 308 308 310 312 314 314 313 314 314 314 314 316 316 318 317 320 321 323 321 323 322 321 321 319 316 318 320 324 324 325 324 323 324 323 323 324 325
298 295 303 303 303 303 306 306 306 309 310 311 313 313 314 315 313 315 314 316 317 317 318 317 319 324 323 320 321 321 319 319 317 319 318 320 321 323 322 321 321 322 322 322 324
298 298 303 301 300 304 304 304 306 309 308 312 311 312 312 312 313 314 314 316 316 316 318 318 321 323 325 323 322 323 321 317 316 319 321 320 325 324 323 322 322 321 322 322 322
299 301 301 300 300 302 303 304 306 306 307 308 311 313 312 312 312 314 315 316 315 316 317 315 318 323 323 323 321 323 323 320 318 321 322 319 329 325 324 323 322 321 320 320 320
299 301 300 298 299 299 301 303 306 307 306 307 312 310 309 313 312 313 315 315 316 316 317 317 320 321 323 323 323 323 322 322 319 318 322 324 327 326 324 323 321 321 317 316 316
298 298 298 299 299 300 301 304 305 306 307 310 311 310 310 312 311 312 313 314 317 318 318 318 320 323 324 324 323 326 326 323 321 321 323 325 324 323 323 323 322 323 319 316 314
298 298 299 299 300 301 301 303 304 305 305 306 309 311 310 311 310 310 310 310 312 316 318 317 317 325 327 324 324 324 325 326 326 324 323 324 322 323 323 323 323 322 323 317 315
Wind_Speed
19 19 20 21 22 22 22 21 21 20 20 21 22 23 25 26 28 28 35 29 27 16 21 12 14 17 13 9 13 7 1 5 6 8 8 2 4 4 13 15 12 5 9 21 31
22 21 20 21 21 22 23 23 22 22 22 22 23 24 26 28 30 34 17 7 11 21 26 26 18 17 9 10 9 6 5 10 7 6 6 1 4 13 12 18 7 11 7 21 30
25 26 26 25 23 23 23 23 23 24 25 25 25 26 26 27 26 2 1 5 3 9 25 23 23 17 9 9 12 8 7 6 5 15 19 4 9 19 7 7 5 5 8 21 24
29 28 27 27 28 29 28 26 26 24 25 27 27 27 23 21 7 2 5 3 3 5 24 25 28 11 7 8 16 4 8 12 9 20 10 4 7 5 13 21 21 13 4 12 20
26 27 29 30 31 31 30 29 29 28 26 25 26 27 22 9 28 25 21 13 11 6 24 34 23 17 7 6 11 4 4 10 19 21 22 28 13 14 24 31 28 23 8 9 10
27 27 28 29 29 29 28 30 31 31 29 28 27 22 18 18 25 5 4 17 26 16 20 32 22 25 8 6 7 6 21 24 19 21 17 11 18 14 19 29 26 24 16 11 12
28 28 29 30 31 31 30 29 30 31 30 27 29 20 25 42 33 33 25 12 14 19 22 29 23 22 10 3 16 20 9 9 8 17 10 16 20 12 24 29 29 28 19 19 14
30 31 31 32 33 34 35 33 32 34 33 30 30 18 22 25 34 42 36 36 29 24 28 22 31 20 7 7 6 3 8 14 6 9 11 14 19 7 15 26 26 24 27 25 21
32 33 34 34 35 36 37 36 35 35 37 31 17 14 18 18 18 5 7 16 31 35 26 24 20 18 12 2 5 5 4 5 4 11 7 12 3 11 21 24 27 26 22 29 26
35 35 36 36 36 37 39 36 36 24 11 3 5 6 17 19 14 6 6 7 12 22 23 22 15 7 9 10 16 8 5 5 6 6 11 13 6 9 17 17 23 28 30 28 28
36 37 38 38 35 36 42 40 9 3 8 9 9 19 37 28 27 25 20 10 18 23 13 22 12 22 22 20 10 5 12 7 5 7 7 7 6 10 16 14 13 23 26 28 28
36 37 39 41 39 34 31 15 11 11 15 16 30 39 52 48 32 34 3 11 12 15 18 8 28 19 16 17 18 15 8 6 4 5 5 7 11 10 10 8 17 26 30 30 32
38 38 41 44 43 20 19 30 13 19 7 17 31 29 31 17 39 45 34 21 14 19 26 24 7 18 18 18 20 21 18 5 5 0 3 3 7 7 9 11 21 23 30 31 28
41 41 42 46 28 27 34 9 21 14 4 8 7 7 9 14 6 15 23 32 13 21 18 18 23 20 22 23 16 20 11 9 6 2 4 6 5 6 8 9 7 17 22 20 18
42 42 43 40 41 23 27 14 8 6 5 4 4 14 2 10 19 3 11 27 22 17 20 19 17 23 18 20 16 12 13 12 7 4 1 7 1 7 4 4 4 6 14 18 23
43 44 46 40 29 22 9 4 3 1 9 6 2 10 16 12 13 9 5 8 17 12 16 26 8 16 27 12 18 10 8 4 3 4 8 7 8 5 3 7 4 6 15 22 26
45 45 40 20 22 12 2 1 3 5 6 5 8 10 15 13 7 2 2 4 3 9 16 16 24 8 11 18 11 9 10 2 3 4 11 9 6 7 6 6 7 13 17 27 30
44 44 13 23 23 4 7 1 6 6 9 12 13 17 9 4 3 3 4 1 3 4 4 12 10 25 16 16 14 11 7 5 6 5 4 8 6 5 7 5 14 25 28 31 37
44 38 13 27 23 4 3 2 5 5 4 10 12 7 4 3 6 3 3 5 8 9 9 6 14 14 21 10 21 9 12 10 4 2 3 4 3 4 6 7 13 21 25 25 32
41 25 21 25 17 7 1 4 5 4 12 6 6 5 5 11 5 4 3 4 5 6 4 5 5 13 22 16 17 10 8 8 5 7 4 3 5 6 3 6 7 12 18 22 32
29 13 18 17 7 2 2 5 6 20 13 4 5 5 8 9 10 6 7 4 7 8 8 1 2 5 9 14 18 9 12 6 7 5 7 4 5 2 5 6 11 7 17 26 32
14 5 14 19 5 4 5 12 10 13 13 14 13 14 3 4 5 4 6 6 12 7 6 7 7 2 10 15 13 6 10 13 5 4 1 4 3 3 5 3 13 18 22 27 35
20 8 11 16 6 6 8 17 13 9 16 8 4 8 2 2 5 5 5 5 10 8 5 2 2 5 3 5 1 11 5 5 5 4 6 6 3 4 6 8 17 24 25 25 27
9 4 8 8 18 9 15 10 12 19 14 18 13 12 4 3 4 7 9 1 10 3 10 5 3 3 6 4 7 17 16 9 6 4 5 4 11 6 10 15 15 23 28 27 26
5 4 7 5 12 14 14 11 16 11 5 13 2 8 11 4 8 4 4 4 6 7 7 6 4 8 6 10 12 13 15 18 8 7 8 10 17 17 19 22 27 34 32 30 27
8 6 8 14 16 13 11 5 16 16 7 9 8 14 11 6 7 14 9 5 3 8 6 5 4 14 11 16 15 5 5 11 9 7 6 17 3 12 14 21 27 32 34 34 27
14 19 11 9 5 9 6 16 21 21 11 20 21 13 11 12 10 18 15 15 11 7 2 1 2 8 4 16 13 3 2 4 4 3 14 9 6 13 15 16 22 25 28 31 35
Wind_Direction
342 341 341 339 337 333 328 325 323 320 318 316 315 312 310 306 303 296 287 292 275 250 228 215 203 188 195 214 202 190 154 207 201 152 240 269 8 293 309 304 308 336 197 197 169
337 336 334 331 329 327 326 324 321 317 314 314 313 312 310 308 311 302 302 288 276 221 220 210 201 193 192 209 203 169 187 208 205 199 247 276 290 307 325 326 315 26 120 167 170
340 335 331 327 325 322 321 320 319 317 315 313 311 309 313 318 323 239 151 360 310 223 208 214 208 198 209 202 197 211 232 170 229 235 247 234 284 280 275 300 302 360 94 147 173
339 337 334 330 327 325 323 320 317 313 311 310 310 310 315 317 293 150 207 279 349 250 198 198 205 192 196 200 212 231 202 207 223 242 265 228 263 267 266 273 282 294 288 180 168
338 335 332 330 328 326 323 320 316 314 311 308 307 306 312 289 258 277 254 259 280 256 201 195 188 196 184 203 219 234 246 231 239 245 256 267 241 257 270 275 280 280 255 206 192
336 332 328 325 322 319 316 315 312 309 307 306 303 301 286 264 296 299 261 234 238 242 210 194 202 198 213 236 190 213 225 244 249 257 255 259 267 238 262 271 273 279 256 229 217
335 331 327 323 320 316 313 310 305 302 303 300 294 285 264 250 273 273 268 244 215 220 224 211 204 189 203 305 246 250 274 282 231 232 237 250 273 235 251 261 263 267 254 265 240
336 333 328 325 321 317 313 309 303 302 299 291 284 272 259 276 283 267 257 252 229 209 214 235 221 209 192 255 325 236 206 242 180 198 237 177 248 284 246 247 240 243 257 254 244
336 333 329 327 324 320 316 310 306 301 292 284 264 231 269 281 269 284 251 255 230 224 224 213 225 215 216 127 321 253 233 211 250 198 217 185 223 253 240 227 231 233 246 247 249
339 335 332 329 326 323 320 315 314 303 306 152 188 223 261 257 264 274 316 283 196 204 206 203 192 198 202 185 215 210 206 213 197 207 204 235 226 254 251 232 230 242 245 244 252
339 337 336 331 327 327 320 325 340 308 334 267 243 238 281 280 273 264 272 266 187 176 184 190 200 210 201 210 222 216 225 193 189 222 194 231 245 254 254 249 236 248 249 249 247
340 337 335 332 329 325 316 331 345 324 295 258 263 263 262 266 269 258 138 198 189 204 179 165 219 202 195 200 211 231 241 223 233 242 170 256 262 248 253 247 234 244 251 251 246
339 337 335 335 329 324 308 313 309 321 270 286 252 247 252 237 245 257 238 244 226 211 195 199 239 192 199 193 202 218 227 186 188 353 232 293 288 285 276 247 243 250 250 252 245
337 335 334 334 331 317 316 325 311 298 290 275 223 258 257 225 250 270 232 213 215 230 208 221 228 190 194 211 194 218 195 189 194 196 219 158 272 277 263 246 201 217 216 217 202
335 334 334 330 311 293 326 317 290 166 298 260 248 55 160 172 316 347 286 187 215 208 188 214 199 217 211 209 195 220 174 190 181 213 85 233 277 269 300 235 178 187 153 163 170
337 336 334 332 319 325 314 263 256 216 249 282 318 9 2 330 318 332 30 172 208 232 212 220 198 200 222 201 211 152 169 167 162 120 240 198 174 261 213 215 175 93 115 135 154
339 337 338 344 332 346 353 254 171 229 310 269 358 349 341 309 303 51 31 17 350 188 220 223 220 216 198 205 205 189 144 167 197 189 235 161 169 219 227 233 179 137 137 141 149
339 340 48 23 351 289 238 322 209 244 238 302 341 326 312 292 283 251 128 109 247 205 264 211 208 209 207 201 198 198 165 150 179 171 176 128 201 231 218 283 163 150 145 143 145
341 349 8 1 353 226 236 207 231 229 279 346 325 285 290 329 322 296 239 198 192 199 200 220 228 181 212 197 188 189 188 179 87 339 93 185 210 9 53 58 123 134 143 145 137
345 349 19 355 354 211 277 248 262 271 325 350 283 257 263 277 293 277 229 187 194 166 114 189 240 212 200 199 220 181 164 165 211 188 183 282 168 172 142 136 143 142 138 136 137
350 337 7 13 353 4 326 295 294 305 318 273 268 262 251 285 254 248 246 212 181 185 142 16 253 223 177 195 197 180 209 200 160 157 172 142 251 283 170 175 148 124 135 138 140
348 323 358 358 20 321 323 309 293 280 296 296 251 268 279 286 259 236 252 243 178 169 161 153 179 233 196 213 203 153 196 216 186 196 141 145 250 85 81 168 117 116 130 133 139
329 288 353 351 17 331 318 315 297 313 313 297 251 254 311 290 301 226 268 247 163 168 141 213 237 135 120 64 191 215 166 142 110 110 184 139 217 124 102 99 114 119 128 137 141
328 308 330 343 358 321 320 320 324 328 308 328 301 280 281 273 241 292 300 235 187 128 125 127 278 229 184 118 118 173 209 180 141 131 165 189 142 168 149 126 119 119 130 142 146
341 333 329 314 325 312 315 298 318 331 310 315 335 352 313 281 307 272 312 265 185 204 153 157 239 251 274 149 149 156 181 205 191 192 169 172 158 179 172 156 147 134 133 132 131
332 322 304 289 288 314 309 321 318 325 307 304 308 334 313 275 268 291 292 284 283 217 184 189 249 197 223 160 139 116 39 200 195 165 128 146 107 171 147 139 143 137 131 132 132
327 323 286 287 292 310 318 316 315 318 299 306 310 313 290 282 295 292 279 279 271 284 251 317 212 179 124 144 114 137 233 187 177 134 139 148 174 145 155 162 154 149 143 148 152